Terminal Aerodrome Forecast
Issued by NWS Jackson, KY

Home | Current Version | Previous Version | Text Only | Print | Product List | Glossary On
Versions: 1 2 3 4 5 6 7 8 9 10 11 12 13 14 15 16 17 18 19 20 21 22 23 24 25
000
FTUS43 KJKL 011836 AAB
TAFJKL
TAF AMD
KJKL 011836Z 0119/0218 VRB05KT 3SM BR VCTS BKN008 OVC015CB
      TEMPO 0119/0122 1SM -TSRA BR BKN003 OVC010CB
     FM020100 VRB03KT P6SM OVC015
     FM020600 VRB03KT 3SM BR BKN008
     FM021300 VRB04KT P6SM BKN015=

USA.gov is the U.S. government's official web portal to all federal, state and local government web resources and services.